Temp
71 65 63 69 69 67 65 63 62 69 74 68 66 68 72 72 67 67 68 68 67 67 65 62 61 62 61 61 60 60 59 58 59 59 56 57 56 57 58 60 59 58 57 53
64 59 69 69 66 63 62 60 61 67 71 69 66 65 72 75 69 68 69 69 67 65 61 59 60 60 59 59 58 59 58 58 58 57 56 55 55 56 58 59 56 56 54 52
59 65 66 62 62 60 60 59 60 60 65 68 64 61 66 73 75 69 69 69 68 63 60 58 58 58 58 58 57 58 57 57 55 53 56 55 56 55 54 53 53 52 51 50
62 67 61 60 58 60 53 64 61 58 56 51 65 49 62 68 65 64 65 64 62 59 57 58 57 57 57 56 57 57 56 56 55 53 52 48 48 46 47 48 48 48 49 47
57 58 56 55 58 60 55 60 58 58 54 54 55 52 59 68 64 62 63 62 60 59 57 56 55 56 56 56 56 56 56 55 54 52 50 48 46 46 46 45 44 45 45 45
59 67 62 60 63 62 62 57 57 57 55 44 54 53 55 58 59 63 65 62 58 56 55 55 55 56 56 56 55 55 55 54 52 51 50 46 44 43 41 41 40 41 42 43
58 58 64 64 57 62 59 53 42 41 43 43 59 54 57 59 59 60 61 59 57 56 55 55 55 55 53 53 53 53 53 52 51 49 48 46 44 43 41 40 39 38 38 39
49 46 59 64 59 57 58 55 44 34 38 45 57 47 53 56 57 59 59 57 55 54 53 52 51 51 50 50 50 50 50 48 50 48 45 44 44 43 42 40 39 38 37 38
48 48 62 61 63 61 55 50 59 47 49 42 48 52 59 56 49 47 51 53 45 49 50 49 49 47 47 47 47 46 46 43 47 47 45 42 41 41 39 39 39 38 38 39
54 44 58 61 63 63 58 62 46 47 32 32 44 47 44 47 48 43 36 38 46 41 45 47 46 43 43 42 47 44 42 38 43 46 45 43 40 39 39 39 37 37 37 38
58 51 49 56 53 53 54 50 52 51 46 34 33 40 53 49 51 39 37 37 36 41 34 37 42 40 38 35 45 43 40 32 33 40 41 41 38 40 40 39 38 37 36 37
58 50 41 48 60 63 59 54 52 39 39 44 38 36 53 46 53 51 44 43 40 37 35 33 34 35 33 38 37 38 38 40 33 32 35 38 35 33 36 34 36 36 34 35
56 46 38 44 52 58 53 55 55 53 49 38 32 37 53 53 51 54 49 48 45 41 36 32 34 32 32 35 33 34 34 38 38 36 33 33 35 33 33 33 34 35 34 33
51 47 43 36 43 50 44 47 50 48 37 38 38 40 49 54 55 55 53 50 46 43 40 37 33 33 32 33 34 34 33 36 40 40 42 32 34 42 41 34 38 37 37 34
50 40 43 46 48 49 47 48 49 47 48 40 39 44 51 55 55 56 52 49 45 42 41 40 40 38 36 35 40 43 44 42 43 39 42 42 43 42 44 43 42 42 43 41
52 39 42 33 44 46 38 41 41 46 47 47 48 47 59 61 59 55 53 46 44 43 43 44 45 46 44 44 44 44 44 45 47 45 43 43 44 43 42 43 42 42 42 42
45 42 38 34 44 45 38 38 43 49 53 52 45 52 58 55 52 51 50 47 45 45 44 45 44 44 45 45 45 44 45 46 45 44 44 44 43 42 42 43 42 40 40 40
43 42 41 35 39 26 42 56 56 52 53 56 55 56 56 54 52 54 54 48 46 46 46 44 41 42 44 46 46 45 46 45 44 43 42 43 42 41 42 41 41 39 39 38
50 44 35 31 34 41 48 54 52 49 47 57 55 55 53 49 49 46 51 50 47 48 47 44 40 39 45 46 46 45 44 42 40 39 39 39 40 39 39 38 37 39 37 36
48 46 37 37 30 28 46 53 57 55 40 53 53 52 49 48 43 46 48 48 46 48 47 44 44 44 45 45 46 44 41 39 35 35 36 38 37 35 33 34 35 37 37 35
38 37 32 34 33 42 56 56 56 37 39 51 55 54 51 48 46 46 46 44 46 48 48 48 47 46 45 46 46 42 41 34 38 38 37 37 35 34 35 35 36 34 33 34
40 35 35 37 33 30 59 54 43 49 53 55 55 54 53 48 47 45 42 41 45 47 48 48 47 47 47 47 46 43 39 41 41 39 38 37 37 37 34 33 36 35 35 32
37 46 43 44 43 52 56 53 56 56 55 54 55 54 54 47 46 44 40 45 47 49 48 50 49 46 46 47 47 44 43 44 42 40 38 38 37 37 37 36 34 36 36 34
48 58 48 46 51 55 54 55 56 56 56 56 56 55 53 50 49 45 45 48 48 50 49 50 47 45 44 46 46 46 44 44 42 40 39 39 38 38 38 38 37 33 32 33
52 52 48 47 53 54 54 56 56 55 55 55 55 54 53 52 49 48 49 49 50 50 49 49 47 45 44 46 45 45 44 44 42 41 40 39 38 39 37 34 33 33 28 28
56 51 44 41 51 53 51 56 56 53 53 54 53 52 53 53 50 51 49 50 50 49 48 47 46 45 45 45 44 44 44 43 42 40 39 39 39 39 39 37 32 27 27 26
MSLP
1010.75 1010.17 1008.87 1007.85 1007.91 1008.20 1008.09 1007.41 1006.51 1006.02 1005.87 1006.13 1006.42 1006.11 1006.18 1007.11 1008.88 1009.49 1010.43 1011.58 1012.70 1013.85 1015.62 1017.36 1018.14 1018.48 1018.78 1019.03 1019.44 1019.54 1019.58 1019.55 1019.28 1018.95 1018.77 1018.33 1017.93 1017.66 1017.28 1016.86 1016.57 1016.38 1016.20 1016.42
1010.75 1009.71 1008.77 1008.86 1009.46 1009.55 1008.98 1008.05 1007.08 1006.69 1006.54 1006.52 1006.25 1005.66 1005.68 1005.86 1007.06 1008.60 1009.53 1010.71 1012.16 1013.96 1016.00 1017.45 1018.14 1018.58 1018.97 1019.23 1019.57 1019.62 1019.72 1019.79 1019.84 1019.81 1019.54 1019.18 1018.64 1017.96 1017.39 1016.84 1017.01 1016.82 1016.58 1016.38
1010.23 1009.34 1010.05 1010.12 1009.89 1009.70 1009.15 1008.46 1007.82 1007.44 1007.39 1007.10 1006.82 1005.00 1005.38 1005.06 1005.48 1007.92 1009.46 1010.60 1012.04 1014.08 1015.72 1017.28 1018.21 1018.65 1018.94 1019.30 1019.67 1019.81 1020.07 1020.22 1020.46 1020.58 1019.91 1019.50 1018.76 1018.14 1017.69 1017.74 1017.46 1017.42 1017.02 1016.67
1010.44 1010.07 1010.42 1010.42 1010.24 1010.11 1009.49 1009.18 1008.86 1008.84 1008.74 1007.06 1006.86 1004.23 1004.80 1004.86 1005.92 1007.90 1009.58 1011.38 1013.27 1015.15 1016.67 1017.48 1018.26 1018.77 1019.10 1019.65 1020.09 1020.25 1020.48 1020.61 1020.78 1020.70 1020.34 1020.07 1019.45 1019.14 1019.15 1018.75 1018.50 1018.10 1017.54 1017.11
1010.39 1010.52 1010.66 1010.54 1010.15 1010.58 1010.41 1010.44 1010.32 1009.73 1009.12 1008.23 1007.10 1006.05 1003.89 1004.62 1005.30 1007.58 1009.82 1011.93 1013.89 1015.63 1016.85 1017.70 1018.57 1019.05 1019.47 1019.87 1020.16 1020.44 1020.53 1020.68 1021.00 1020.92 1020.86 1020.61 1020.39 1020.26 1020.11 1019.66 1019.12 1018.53 1018.16 1017.54
1010.94 1010.85 1010.91 1010.86 1010.59 1010.66 1010.96 1010.90 1010.62 1009.90 1009.14 1007.80 1006.73 1006.14 1004.34 1005.43 1006.38 1007.18 1009.22 1012.09 1014.48 1016.33 1017.60 1018.47 1019.12 1019.41 1019.67 1020.12 1020.47 1020.79 1020.87 1020.90 1021.34 1021.35 1021.30 1021.29 1021.17 1020.92 1020.62 1020.27 1019.75 1019.31 1018.63 1017.73
1010.13 1010.20 1010.17 1010.80 1010.70 1010.37 1010.87 1010.74 1009.81 1008.78 1007.56 1006.19 1005.67 1005.39 1005.25 1007.06 1008.69 1009.71 1010.75 1013.08 1015.15 1016.74 1017.79 1018.60 1019.08 1019.54 1020.17 1020.61 1020.97 1021.24 1021.28 1021.37 1021.68 1021.73 1021.69 1021.74 1021.76 1021.32 1020.95 1020.73 1020.37 1019.84 1019.06 1018.08
1009.73 1009.16 1009.41 1009.85 1010.11 1009.43 1009.28 1009.58 1009.31 1008.44 1007.49 1006.49 1005.93 1005.93 1006.46 1008.82 1010.35 1011.38 1012.51 1014.35 1016.17 1017.27 1018.43 1019.26 1020.03 1020.53 1021.14 1021.44 1021.64 1021.86 1021.97 1022.06 1021.94 1022.15 1022.28 1022.35 1022.30 1021.99 1021.49 1021.31 1021.14 1020.53 1019.67 1018.88
1010.22 1009.95 1009.87 1010.33 1010.15 1010.13 1009.32 1009.49 1009.67 1009.32 1008.96 1008.33 1007.46 1007.29 1008.08 1009.85 1011.85 1013.28 1014.36 1015.63 1017.59 1018.43 1019.28 1020.07 1020.87 1021.51 1021.89 1022.17 1022.44 1022.70 1022.83 1023.10 1022.58 1022.56 1022.70 1022.84 1022.93 1022.62 1022.19 1022.04 1021.62 1021.03 1020.30 1019.38
1011.30 1011.01 1010.46 1010.01 1010.13 1009.99 1009.90 1009.88 1009.82 1009.66 1009.67 1008.54 1007.60 1007.16 1008.05 1011.00 1012.48 1014.85 1016.16 1016.86 1018.40 1020.09 1020.41 1020.98 1021.71 1022.53 1023.02 1023.36 1023.01 1023.39 1023.89 1024.05 1023.53 1023.17 1023.09 1023.16 1023.38 1023.17 1022.97 1022.59 1022.11 1021.60 1020.65 1019.83
1011.93 1011.74 1011.07 1010.61 1010.01 1009.36 1009.12 1009.51 1009.68 1010.02 1010.20 1009.92 1009.22 1008.89 1010.05 1011.31 1012.48 1014.28 1015.72 1017.15 1018.30 1019.67 1021.41 1022.24 1022.63 1023.38 1023.91 1024.08 1023.58 1023.87 1024.15 1024.91 1024.81 1024.24 1023.89 1023.81 1024.09 1023.63 1023.52 1023.10 1022.87 1022.31 1021.43 1020.82
1012.25 1012.27 1011.80 1010.80 1009.89 1009.58 1009.65 1009.53 1009.78 1010.35 1010.20 1010.27 1010.58 1010.37 1011.00 1011.92 1012.42 1013.73 1015.42 1017.11 1019.01 1020.47 1021.49 1022.52 1023.34 1023.89 1024.48 1024.43 1024.64 1024.53 1024.58 1024.57 1025.07 1025.09 1024.79 1024.41 1024.69 1024.53 1024.09 1023.96 1023.64 1023.24 1022.53 1021.89
1013.28 1012.91 1012.20 1010.80 1010.09 1009.82 1009.77 1009.83 1009.77 1009.87 1010.24 1010.47 1011.09 1010.43 1011.09 1011.70 1012.40 1013.09 1014.47 1016.09 1018.05 1019.90 1021.69 1022.75 1023.26 1023.96 1024.48 1024.77 1025.04 1025.09 1025.08 1024.79 1024.96 1024.97 1025.08 1025.10 1024.67 1024.28 1024.45 1024.06 1023.61 1023.36 1022.93 1022.41
1015.22 1014.00 1013.18 1012.12 1011.33 1011.10 1010.90 1010.89 1010.50 1010.66 1010.80 1010.59 1010.39 1010.12 1010.18 1010.33 1010.55 1011.84 1013.53 1015.17 1017.31 1019.08 1020.69 1022.12 1023.02 1023.69 1024.37 1024.75 1024.88 1024.96 1025.14 1025.08 1024.67 1024.64 1024.30 1025.05 1024.82 1023.74 1023.94 1023.99 1023.39 1022.88 1022.76 1022.53
1015.58 1014.32 1013.99 1013.30 1012.75 1012.14 1011.34 1010.68 1010.44 1010.21 1009.84 1009.81 1009.61 1009.27 1009.05 1009.05 1009.41 1010.23 1012.51 1014.91 1016.83 1018.60 1019.85 1020.96 1021.87 1022.79 1023.70 1024.10 1023.95 1023.91 1024.03 1024.31 1024.40 1024.75 1024.30 1024.28 1024.15 1024.26 1024.06 1023.82 1023.43 1022.94 1022.69 1022.59
1014.68 1014.20 1014.42 1014.04 1013.85 1012.85 1011.67 1011.39 1011.10 1010.57 1010.06 1009.55 1008.94 1008.05 1008.06 1007.99 1009.22 1010.40 1011.98 1014.39 1016.34 1017.97 1019.14 1020.08 1020.76 1021.41 1022.23 1022.71 1023.10 1023.60 1023.77 1023.84 1023.83 1023.94 1024.15 1024.33 1024.21 1024.36 1024.52 1024.05 1023.84 1023.57 1023.25 1023.17
1014.97 1014.73 1014.51 1013.36 1013.02 1011.90 1010.41 1009.83 1009.60 1009.14 1008.77 1008.29 1007.46 1007.58 1007.91 1008.64 1009.89 1010.98 1012.38 1014.31 1015.88 1017.29 1018.55 1019.46 1020.36 1021.16 1021.75 1022.32 1022.91 1023.33 1023.61 1023.87 1023.96 1024.08 1024.27 1024.38 1024.41 1024.53 1024.56 1024.40 1024.30 1024.28 1024.10 1024.11
1014.79 1014.65 1014.51 1013.70 1013.14 1011.31 1009.55 1008.80 1008.09 1007.72 1007.70 1007.58 1007.35 1007.49 1008.25 1009.31 1010.71 1011.44 1012.62 1014.35 1015.79 1016.97 1018.11 1019.44 1020.60 1021.31 1021.96 1022.52 1022.99 1023.44 1023.63 1024.04 1024.28 1024.53 1024.69 1024.80 1024.89 1024.98 1025.01 1024.87 1024.75 1024.95 1025.02 1024.93
1013.73 1014.07 1014.10 1013.52 1012.26 1010.44 1008.58 1007.42 1007.06 1007.36 1007.63 1007.41 1007.28 1008.00 1009.08 1010.70 1011.66 1012.71 1013.63 1014.72 1015.89 1016.93 1018.21 1019.73 1021.18 1021.80 1022.03 1022.47 1022.99 1023.41 1023.94 1024.48 1024.96 1025.26 1025.48 1025.66 1025.73 1025.79 1025.66 1025.57 1025.66 1025.59 1025.75 1025.94
1012.66 1013.65 1013.94 1012.64 1011.42 1009.49 1007.54 1007.66 1007.76 1008.05 1007.86 1008.16 1008.48 1008.86 1010.07 1011.30 1011.77 1012.58 1014.17 1015.36 1016.44 1017.42 1018.52 1019.87 1021.06 1021.79 1021.97 1022.59 1023.01 1023.57 1024.29 1024.97 1025.65 1025.99 1026.14 1026.30 1026.59 1026.73 1026.74 1026.69 1026.54 1026.44 1026.44 1026.40
1011.79 1012.82 1012.65 1012.04 1010.74 1008.85 1007.40 1007.52 1008.20 1008.57 1009.07 1009.10 1009.12 1009.46 1010.40 1011.37 1012.74 1013.94 1015.17 1016.23 1017.17 1017.72 1018.53 1019.70 1020.69 1021.20 1022.02 1022.62 1023.11 1023.75 1024.50 1025.46 1025.82 1026.26 1026.52 1026.76 1027.10 1027.17 1027.04 1027.06 1027.00 1027.11 1027.12 1027.05
1010.35 1011.14 1010.84 1010.82 1010.01 1008.75 1007.51 1008.05 1008.57 1008.90 1009.16 1009.33 1009.59 1010.08 1010.79 1012.42 1013.58 1014.81 1016.03 1016.96 1017.49 1017.78 1018.63 1019.56 1020.25 1020.94 1021.89 1022.47 1023.03 1023.70 1024.61 1025.28 1025.76 1026.23 1026.58 1026.87 1027.01 1027.21 1027.51 1027.45 1027.20 1027.25 1027.02 1027.10
1009.41 1008.93 1008.48 1008.63 1008.33 1008.50 1008.32 1008.60 1008.82 1009.20 1009.18 1009.83 1010.03 1010.72 1011.44 1012.81 1013.90 1015.25 1016.43 1016.85 1017.25 1017.79 1018.68 1019.37 1019.94 1021.01 1021.89 1022.39 1022.85 1023.33 1024.25 1025.02 1025.70 1026.08 1026.38 1026.66 1027.00 1027.25 1027.34 1027.35 1027.46 1027.16 1027.16 1027.29
1008.56 1007.30 1007.58 1008.16 1007.91 1007.79 1008.51 1009.03 1009.28 1009.59 1009.77 1010.19 1010.61 1011.19 1012.07 1012.80 1013.92 1015.18 1016.05 1016.47 1017.13 1017.80 1018.49 1019.29 1020.13 1021.09 1021.88 1022.44 1022.96 1023.32 1024.40 1024.98 1025.53 1025.94 1026.25 1026.59 1026.73 1026.95 1027.14 1027.37 1027.73 1028.09 1028.12 1027.94
1007.49 1008.01 1007.59 1007.70 1007.74 1008.11 1008.61 1008.86 1009.31 1009.90 1010.35 1010.73 1011.16 1011.64 1012.17 1012.93 1014.00 1014.93 1015.52 1016.26 1016.94 1017.73 1018.55 1019.41 1020.21 1021.02 1021.82 1022.62 1023.26 1023.88 1024.68 1025.04 1025.31 1025.74 1026.11 1026.47 1026.87 1026.93 1027.45 1028.33 1028.79 1028.86 1029.72 1029.67
1007.45 1007.24 1007.75 1007.87 1008.21 1008.16 1008.80 1008.89 1009.60 1010.27 1010.75 1011.11 1011.60 1012.14 1012.65 1013.28 1014.04 1014.79 1015.50 1016.38 1017.00 1017.83 1018.76 1019.66 1020.42 1021.18 1021.84 1022.73 1023.54 1024.21 1024.76 1025.22 1025.39 1025.85 1026.24 1026.58 1026.76 1027.06 1027.31 1027.71 1029.00 1030.20 1030.31 1030.44
Wind_Speed
11 10 14 14 8 12 12 16 19 18 16 11 15 18 17 16 14 14 14 13 12 9 7 2 3 4 6 7 8 9 10 11 10 9 10 10 10 10 10 10 13 15 14 13
8 14 13 9 8 13 16 18 19 19 17 17 17 22 19 19 18 15 15 14 12 9 6 3 2 3 5 6 8 8 10 11 10 9 9 9 10 10 10 10 13 14 15 14
14 9 2 5 12 15 15 16 16 17 18 20 18 29 24 21 23 14 11 10 10 8 6 4 1 2 4 7 8 8 10 11 11 12 9 10 9 10 10 12 12 14 16 13
12 8 10 11 15 15 16 16 13 14 15 15 13 22 18 16 6 12 12 9 7 8 5 4 1 2 5 6 7 8 9 10 10 12 11 14 12 12 11 11 11 13 15 14
4 7 6 8 7 3 11 5 11 12 14 17 17 14 16 12 10 13 13 12 10 6 4 4 3 3 4 6 6 7 8 9 12 12 13 11 13 10 11 11 15 15 14 16
16 13 7 12 9 9 10 9 15 16 15 17 18 18 20 8 12 6 15 13 9 8 6 4 3 3 5 6 7 7 8 9 11 11 13 13 14 13 11 13 11 11 11 11
12 14 15 14 14 12 13 12 10 12 12 15 15 14 8 10 8 6 10 11 10 8 7 5 3 4 5 6 7 7 8 9 10 11 12 13 13 13 13 14 12 14 11 11
12 8 11 7 12 12 9 12 12 19 15 15 19 9 4 11 8 7 8 10 9 8 6 5 3 5 6 5 7 8 9 9 10 10 11 12 13 9 10 12 11 10 11 11
5 7 2 6 7 7 7 11 14 16 18 15 17 20 9 12 10 6 9 10 6 6 5 4 4 5 5 6 7 7 8 10 10 10 9 11 12 13 12 14 13 10 12 12
6 10 11 9 9 14 16 11 10 6 13 19 14 16 3 5 1 7 2 4 10 7 4 5 4 4 6 6 5 7 9 8 10 10 10 10 11 12 13 13 15 15 14 16
10 8 8 6 10 13 12 15 14 15 13 12 14 8 6 4 6 12 13 12 10 14 7 3 2 5 4 1 5 6 6 6 8 9 10 11 12 12 12 14 15 15 15 16
5 6 11 17 15 13 13 16 10 8 16 13 10 6 4 4 1 7 11 14 13 8 10 8 5 2 1 4 5 5 6 7 4 5 8 8 7 7 12 11 12 13 14 15
8 7 10 13 15 20 15 18 18 16 15 16 11 9 5 3 4 5 10 13 13 12 10 7 7 5 3 2 4 4 4 5 5 5 6 7 8 4 4 6 6 7 10 12
6 13 15 13 15 16 12 15 13 15 9 14 15 18 15 16 14 9 9 12 13 12 12 10 8 6 5 3 4 4 4 2 5 5 6 5 4 9 6 2 7 4 9 9
11 17 15 17 20 21 22 22 19 21 20 19 15 23 21 21 15 12 14 12 13 13 13 12 11 10 9 7 6 5 6 6 6 5 7 8 8 9 9 10 11 12 13 13
16 20 15 8 14 20 22 18 16 22 24 25 26 25 19 12 7 3 10 14 14 13 13 12 12 12 10 8 7 6 5 5 5 7 7 7 9 9 9 11 12 13 14 15
11 8 12 19 16 19 20 12 20 24 24 23 21 17 12 7 2 3 9 13 14 13 14 13 11 10 8 8 7 7 6 6 6 7 7 8 8 9 9 11 12 12 14 14
18 15 13 14 15 20 15 17 14 15 15 15 16 14 10 4 7 1 7 12 13 14 14 13 9 10 9 8 7 7 7 6 6 7 8 8 8 9 10 11 12 13 12 13
20 16 10 14 15 17 22 16 15 8 14 13 8 8 7 7 4 4 6 10 12 12 12 12 10 7 10 10 9 8 8 7 7 7 8 8 8 9 10 11 11 11 11 12
20 14 12 10 14 16 11 5 5 1 10 5 1 2 6 7 6 6 11 11 12 13 13 13 14 11 9 9 9 9 8 8 7 6 6 7 8 8 9 9 10 9 9 10
13 12 17 15 14 13 17 10 5 7 2 3 2 4 6 5 5 10 13 12 12 13 14 14 14 12 11 10 9 9 8 7 8 7 6 7 7 7 7 7 6 6 8 8
12 10 9 12 15 15 11 8 5 3 1 3 1 3 5 9 9 13 12 14 13 14 14 14 12 11 11 10 10 10 9 8 8 7 6 6 5 5 5 5 5 6 5 5
9 12 10 7 6 4 3 4 3 2 2 2 1 4 6 9 11 13 14 15 14 14 13 12 11 11 10 10 9 10 9 9 8 7 6 6 5 5 4 5 4 5 5 6
12 12 8 6 5 8 5 4 4 3 1 2 3 5 8 9 11 13 14 13 12 12 12 11 11 11 10 9 7 8 9 9 8 7 6 5 4 4 4 3 5 6 6 5
4 4 7 11 13 5 6 7 7 5 4 5 4 6 7 9 11 12 11 12 12 12 11 10 10 9 10 8 8 8 8 8 7 6 5 5 4 3 5 7 7 5 7 7
9 9 7 5 4 7 3 4 5 6 6 5 6 7 7 9 11 12 11 11 11 11 10 9 9 9 9 9 8 8 7 7 6 5 4 3 3 2 1 4 7 9 8 7
Wind_Direction
191 252 235 261 332 324 296 283 277 279 289 272 265 268 272 185 201 209 209 213 207 201 107 78 34 38 8 30 11 4 6 4 355 354 345 342 333 329 322 323 321 331 333 324
228 244 263 341 307 283 275 272 270 277 276 273 286 276 270 265 191 212 211 209 205 172 188 137 358 30 30 25 20 11 11 11 7 357 337 333 329 324 322 330 332 328 332 319
244 271 121 265 271 270 262 266 278 284 300 294 285 274 263 248 233 190 220 217 189 184 204 166 211 55 39 39 31 18 13 15 18 1 346 347 335 338 344 341 336 339 324 332
265 277 293 276 261 264 275 284 295 297 277 275 290 290 289 295 160 189 200 193 169 182 193 172 176 66 51 47 44 28 16 22 18 9 1 358 352 349 340 339 334 329 336 333
248 193 216 243 263 299 282 340 284 281 274 281 268 258 281 268 223 188 200 182 192 170 189 151 129 95 77 54 47 35 14 27 21 14 13 5 1 353 344 344 338 340 335 339
260 286 269 266 274 272 265 276 261 260 261 263 271 261 274 302 1 43 153 164 167 167 165 151 124 123 79 59 38 27 9 25 26 16 17 13 6 356 352 350 343 341 337 337
218 236 231 220 254 239 232 257 273 271 252 260 267 273 286 88 71 43 141 153 160 160 177 161 136 82 50 33 29 23 11 17 29 18 20 18 7 7 3 356 350 347 342 344
272 261 191 167 251 274 272 247 256 276 285 299 299 263 325 101 98 105 112 139 152 167 145 139 95 62 44 27 31 23 22 11 25 27 23 19 13 9 11 6 357 350 352 348
310 255 74 244 270 251 262 240 263 277 276 273 270 265 189 141 101 77 136 149 138 156 163 136 102 60 57 30 37 32 28 14 17 34 27 26 14 11 13 9 5 1 1 358
274 277 279 272 271 237 255 282 284 253 270 267 269 285 89 358 118 178 183 155 173 178 192 139 92 58 39 9 40 50 33 22 12 27 32 34 25 17 12 9 11 9 7 13
273 269 259 227 239 261 232 241 244 262 276 277 284 292 39 113 160 196 191 191 178 167 161 171 123 81 26 303 49 51 84 46 30 21 32 40 27 21 21 18 15 11 17 15
259 282 272 268 276 275 266 279 269 261 267 272 277 271 45 158 337 171 197 196 192 172 167 152 142 113 93 78 36 62 32 69 73 42 39 31 47 32 29 14 13 15 20 20
301 240 258 257 235 231 247 255 261 271 277 270 279 272 167 186 231 223 197 187 179 174 163 158 155 143 128 100 92 58 50 37 54 93 70 37 343 106 30 358 335 20 17 32
323 268 269 275 295 314 274 276 297 292 266 277 264 286 274 266 253 231 206 177 175 176 170 168 160 149 148 142 124 117 101 32 62 50 85 102 8 33 53 239 10 40 44 29
248 262 268 276 285 286 286 287 293 285 284 276 300 283 285 284 282 272 184 174 173 183 177 173 169 160 163 160 162 146 130 132 119 79 47 52 58 37 35 36 31 37 31 39
225 251 263 262 271 267 262 263 261 264 268 271 274 280 285 301 342 332 157 167 185 187 181 173 174 158 152 149 139 129 115 97 88 69 72 54 58 51 40 39 42 33 36 32
255 254 248 264 263 271 262 241 236 256 259 263 268 281 314 298 244 230 173 178 188 184 176 173 162 152 146 141 148 141 130 115 91 81 69 60 55 52 47 48 47 44 39 37
248 243 249 265 278 269 271 257 258 248 261 277 281 288 282 10 44 92 173 176 182 175 172 159 151 149 149 147 132 135 122 106 91 76 66 59 54 55 48 47 50 49 42 39
225 242 257 250 252 263 270 233 227 240 277 283 296 310 68 112 143 153 162 165 172 166 156 149 143 154 159 152 147 133 122 108 92 78 71 58 53 50 49 51 45 44 50 44
221 218 234 247 236 255 269 127 76 66 274 68 283 251 147 161 223 99 151 150 148 151 151 153 158 168 162 155 151 140 130 119 101 93 84 78 73 65 58 49 39 42 49 45
191 203 225 230 255 268 283 124 124 248 359 161 292 138 163 194 49 127 132 141 153 157 152 151 161 166 152 161 155 148 138 133 136 129 109 99 88 63 65 56 61 66 48 46
182 202 216 233 250 262 261 109 233 62 137 140 161 125 156 102 129 132 142 146 159 157 151 161 164 156 161 161 161 155 149 150 144 136 128 111 90 92 78 43 69 45 42 60
219 216 214 218 207 4 285 39 90 329 221 191 133 119 129 143 143 144 155 163 164 159 158 165 160 152 159 170 173 165 149 153 152 153 141 128 119 99 65 68 38 34 41 33
264 227 253 273 289 276 194 212 211 196 200 128 116 150 153 158 149 148 167 164 163 159 164 164 154 163 165 171 183 147 159 157 163 162 152 146 131 110 112 97 64 39 17 24
346 298 261 259 260 228 242 231 202 183 164 144 143 151 167 147 155 161 164 162 166 162 157 165 165 168 165 165 173 150 165 170 176 169 153 147 145 170 101 56 19 80 55 27
259 255 250 256 290 291 1 202 172 175 186 162 151 152 147 158 160 164 160 164 164 158 157 164 167 169 164 161 167 163 170 183 177 180 183 143 160 155 156 147 124 71 71 66